RADUGA 31 [-]

Last updated on Aug. 12, 2020, 5:32 a.m. UTC

1 23010U 94012A   20224.83852073 -.00000128  00000-0  00000+0 0  9999
2 23010  14.8734   5.2239 0005799  46.2236 286.6130  1.00340377 96937
UTC
Height (km)
Latitude
Longitude
Inclination
Orbital Period
UTC large
Height (km)
Speed (km/s)
/
Latitude / Longitude
Inclination (degrees)
Orbital Period (minutes)
Azimuth
Elevation
Range (km)
Doppler Factor
iOS Compass Heading
iOS Angle

Next 30 passes for location: Hong Kong

Rise time Rise Azimuth (degrees) Set time Set Azimuth (degrees) Duration Max altitude (degrees)

No matching passes for this satellites